BREEZE-M R/B

基本信息
目录编号:
34711
目录名称:
BREEZE-M R/B
国际标识:
2009-016B
轨道中心:
EARTH
物体状态:
在轨
发射日期:
2009-04-03 UTC
国别:
俄罗斯(独联体) (CIS)
轨道信息
数据来源: 国际轨道数据
星历时间: 2026-07-12T18:31:09+0800
半长轴: 24944.316km
偏心率: 0.5941899
轨道倾角: 21.153°
近地点辐角: 8.543°
升交点赤经: 309.277°
平近点角: 358.108°
近地点: 3744.518km
远地点: 33387.84km
周期: 653.457分钟
每日圈数: 2.203664
详细信息
发射场:
TTMTR
轨道高度:
MEO
数据来源:
AOE Integration Group
参考系:
TEME
时间系统:
UTC
历元类型:
SGP4
2D轨道图
3D轨道图
轨道高度分析图
轨道倾角分析图
轨道综合分析图
查看轨道综合分析图